This demonstration page uses our WeatherBlox Daily Observations layout. Learn more.

Hourly Observations for October 18, 2015

Temp ( °F °C ) Dew Point ( °F °C ) Humidity (%) Winds ( mph kmh ) Pressure ( in mb ) Visibility ( mi km ) Precip ( " mm )
12:15 am 00:15 Clear 45 7.4 30 -1.1 55 55 SSE 13 20 30.27 1025 10 16.0934 0 0
12:35 am 00:35 Clear 46 7.6 30 -1 55 55 SSE 13 20 30.24 1024 10 16.0934 0 0
12:55 am 00:55 Clear 46 7.8 30 -1 54 54 SSE 12 19 30.24 1024 10 16.0934 0 0
1:15 am 01:15 Clear 46 7.6 30 -1 55 55 SSE 13 20 30.21 1023 10 16.0934 0 0
1:35 am 01:35 Clear 45 7.2 30 -1 56 56 SSE 12 19 30.24 1024 10 16.0934 0 0
1:55 am 01:55 Clear 45 7.3 30 -1 56 56 SSE 14 22 30.24 1024 10 16.0934 0 0
2:15 am 02:15 Clear 45 7.2 31 -0.8 57 57 SSE 12 19 30.24 1024 10 16.0934 0 0
2:35 am 02:35 Clear 45 7.3 31 -0.6 58 58 SSE 15 24 30.24 1024 10 16.0934 0 0
2:55 am 02:55 Clear 46 7.6 32 -0.2 58 58 SSE 14 22 30.21 1023 10 16.0934 0 0
3:15 am 03:15 Clear 46 7.8 32 -0.2 57 57 SSE 15 24 30.18 1022 10 16.0934 0 0
3:35 am 03:35 Clear 46 7.7 32 0 59 59 SSE 12 19 30.18 1022 10 16.0934 0 0
3:55 am 03:55 Clear 46 7.8 32 0 58 58 SSE 14 22 30.18 1022 10 16.0934 0 0
4:15 am 04:15 Clear 46 7.5 32 0 59 59 SSE 12 19 30.18 1022 10 16.0934 0 0
4:35 am 04:35 Clear 45 7.3 32 0 60 60 SSE 13 20 30.21 1023 10 16.0934 0 0
4:55 am 04:55 Clear 45 7.2 32 0 61 61 SSE 12 19 30.21 1023 10 16.0934 0 0
5:15 am 05:15 Clear 45 7.1 32 0.2 62 62 SSE 13 20 30.21 1023 10 16.0934 0 0
5:35 am 05:35 Clear 45 7 33 0.3 63 63 SSE 13 20 30.21 1023 10 16.0934 0 0
5:55 am 05:55 Clear 44 6.5 32 0.2 64 64 SSE 12 19 30.21 1023 10 16.0934 0 0
6:15 am 06:15 Clear 44 6.5 33 0.4 65 65 SSE 13 20 30.21 1023 10 16.0934 0 0
6:35 am 06:35 Clear 43 6.2 33 0.3 66 66 SSE 12 19 30.18 1022 10 16.0934 0 0
6:55 am 06:55 Clear 43 6.2 33 0.5 67 67 SSE 12 19 30.18 1022 10 16.0934 0 0
7:15 am 07:15 Clear 43 6.3 33 0.6 67 67 SSE 9 15 30.18 1022 10 16.0934 0 0
7:35 am 07:35 Clear 43 6.1 33 0.7 69 69 SSE 10 17 30.18 1022 10 16.0934 0 0
7:55 am 07:55 Sunny 43 6.2 33 0.8 69 69 SSE 12 19 30.18 1022 10 16.0934 0 0
8:15 am 08:15 Sunny 44 6.5 34 1 68 68 SSE 9 15 30.18 1022 10 16.0934 0 0
8:35 am 08:35 Sunny 44 6.7 34 1 67 67 SSE 10 17 30.18 1022 10 16.0934 0 0
8:55 am 08:55 Sunny 46 7.5 34 1.2 65 65 SSE 10 17 30.15 1021 10 16.0934 0 0
9:15 am 09:15 Sunny 47 8.5 35 1.5 62 62 SSE 12 19 30.15 1021 10 16.0934 0 0
9:35 am 09:35 Sunny 49 9.3 35 1.7 59 59 SSE 14 22 30.15 1021 10 16.0934 0 0
9:55 am 09:55 Sunny 51 10.7 36 2.4 57 57 S 14 22 30.12 1020 10 16.0934 0 0
10:15 am 10:15 Sunny 54 12.4 37 2.8 52 52 S 15 24 30.12 1020 10 16.0934 0 0
10:35 am 10:35 Sunny 56 13.4 38 3.1 50 50 S 14 22 30.12 1020 10 16.0934 0 0
10:55 am 10:55 Sunny 57 14.1 38 3.2 48 48 S 17 28 30.09 1019 10 16.0934 0 0
11:15 am 11:15 Sunny 59 15.2 38 3.5 46 46 S 18 30 30.09 1019 10 16.0934 0 0
11:35 am 11:35 Sunny 61 16.2 39 3.9 44 44 S 18 30 30.09 1019 10 16.0934 0 0
11:55 am 11:55 Sunny 63 17.3 39 3.9 41 41 S 18 30 30.09 1019 10 16.0934 0 0
12:15 pm 12:15 Sunny 66 18.9 40 4.4 39 39 S 20 31 30.06 1018 10 16.0934 0 0
12:35 pm 12:35 Sunny 67 19.5 40 4.5 37 37 S 20 31 30.03 1017 10 16.0934 0 0
12:55 pm 12:55 Sunny 69 20.8 40 4.7 35 35 S 16 26 30 1016 10 16.0934 0 0
1:15 pm 13:15 Sunny 71 21.6 41 4.9 34 34 S 18 30 30 1016 10 16.0934 0 0
1:35 pm 13:35 Sunny 73 22.7 41 5 32 32 S 20 31 29.97 1015 10 16.0934 0 0
1:55 pm 13:55 Sunny 74 23.2 41 4.9 31 31 SSW 18 30 29.97 1015 10 16.0934 0 0
2:15 pm 14:15 Sunny 76 24.6 41 5.1 28 28 S 21 33 29.91 1013 10 16.0934 0 0
2:35 pm 14:35 Sunny 78 25.8 42 5.3 27 27 S 17 28 29.91 1013 10 16.0934 0 0
2:55 pm 14:55 Sunny 79 26 41 5.2 26 26 S 16 26 29.88 1012 10 16.0934 0 0
3:15 pm 15:15 Sunny 82 27.5 41 4.9 24 24 S 28 44 29.85 1011 10 16.0934 0 0
3:35 pm 15:35 Sunny 82 27.9 40 4.5 22 22 S 28 44 29.83 1010 10 16.0934 0 0
3:55 pm 15:55 Sunny 82 28 40 4.5 22 22 S 22 35 29.83 1010 10 16.0934 0 0
4:15 pm 16:15 Sunny 82 28 41 4.9 23 23 S 17 28 29.83 1010 10 16.0934 0 0
4:35 pm 16:35 Sunny 82 27.5 43 6.2 26 26 S 24 39 29.83 1010 10 16.0934 0 0
4:55 pm 16:55 Sunny 82 28 44 6.5 26 26 S 23 37 29.83 1010 10 16.0934 0 0
5:15 pm 17:15 Sunny 82 27.6 43 5.9 25 25 S 25 41 29.83 1010 10 16.0934 0 0
5:35 pm 17:35 Sunny 81 27.1 41 5.2 25 25 S 24 39 29.83 1010 10 16.0934 0 0
5:55 pm 17:55 Sunny 79 26 42 5.5 27 27 S 18 30 29.85 1011 10 16.0934 0 0
6:15 pm 18:15 Sunny 78 25.7 41 5.2 27 27 S 17 28 29.85 1011 10 16.0934 0 0
6:35 pm 18:35 Sunny 78 25.6 41 5 27 27 S 16 26 29.85 1011 10 16.0934 0 0
6:55 pm 18:55 Clear 77 25 41 5.1 28 28 S 14 22 29.85 1011 10 16.0934 0 0
7:15 pm 19:15 Clear 76 24.5 41 4.8 28 28 S 15 24 29.85 1011 10 16.0934 0 0
7:35 pm 19:35 Clear 76 24.5 41 4.9 28 28 S 16 26 29.85 1011 10 16.0934 0 0
7:55 pm 19:55 Clear 75 23.9 41 5 29 29 S 15 24 29.85 1011 10 16.0934 0 0
8:15 pm 20:15 Clear 74 23.3 43 6 33 33 S 16 26 29.85 1011 10 16.0934 0 0
8:35 pm 20:35 Clear 73 22.6 43 6.3 35 35 S 15 24 29.85 1011 10 16.0934 0 0
8:55 pm 20:55 Clear 72 22.1 44 6.6 37 37 S 13 20 29.88 1012 10 16.0934 0 0
9:15 pm 21:15 Clear 70 21.2 44 6.9 40 40 S 12 19 29.88 1012 10 16.0934 0 0
9:35 pm 21:35 Clear 69 20.8 45 7.1 41 41 S 14 22 29.88 1012 10 16.0934 0 0
9:55 pm 21:55 Clear 70 21 45 7.4 42 42 S 16 26 29.88 1012 10 16.0934 0 0
10:15 pm 22:15 Clear 70 20.9 45 7.3 42 42 S 18 30 29.88 1012 10 16.0934 0 0
10:35 pm 22:35 Clear 69 20.8 45 7.2 42 42 S 18 30 29.91 1013 10 16.0934 0 0
10:55 pm 22:55 Clear 69 20.4 45 7.1 42 42 S 17 28 29.91 1013 10 16.0934 0 0
11:15 pm 23:15 Clear 68 20.1 45 7 43 43 S 22 35 29.91 1013 10 16.0934 0 0
11:35 pm 23:35 Clear 68 20 44 6.7 42 42 S 20 31 29.91 1013 10 16.0934 0 0
11:55 pm 23:55 Clear 67 19.5 43 6.3 42 42 S 20 31 29.91 1013 10 16.0934 0 0

Powered by AerisWeather